California, MD

4:32 AM EDT on July 30, 2016 (GMT -0400)
Leonardtown

Weather History for K2W6 - March, 2014

Change the Weather History Date:

Sunday, March 23, 2014

  Actual Average (KNHK) Record (KNHK)
Temperature  
Mean Temperature 43 °F -  
Max Temperature 51 °F 53 °F 79 °F (2007)
Min Temperature 35 °F 35 °F 19 °F (2004)
Degree Days  
Heating Degree Days 22    
Moisture  
Dew Point 26 °F    
Average Humidity 54    
Maximum Humidity 81    
Minimum Humidity 36    
Precipitation  
Precipitation 0.00 in - - ()
Sea Level Pressure  
Sea Level Pressure 30.07 in    
Wind  
Wind Speed 3 mph (North)    
Max Wind Speed 14 mph    
Max Gust Speed 22 mph    
Visibility 10 miles    
Events      
Averages and records for this station are not official NWS values.
T = Trace of Precipitation, MM = Missing Value Source: NWS Daily Summary

Daily Weather History Graph

Daily Weather History Graph

Search for Another Location

Airport or City:

Trip Planner

Search our weather history database for the weather conditions in past years. The results will help you decide how hot, cold, wet, or windy it might be!

Date:

Astronomy

Mar. 23, 2014 Rise Set
Actual Time 7:05 AM EDT 7:20 PM EDT
Civil Twilight 6:38 AM EDT 7:47 PM EDT
Nautical Twilight 6:07 AM EDT 8:18 PM EDT
Astronomical Twilight 5:36 AM EDT 8:49 PM EDT
Moon 1:31 AM EDT (3/23) 11:48 AM EDT (3/23)
Length of Visible Light 13h 08m
Length of Day
12h 15m
Waning Gibbous, 55% of the Moon is Illuminated
Mar 23
Waning Gibbous
Mar 23
Last Quarter
Mar 30
New
Apr 7
First Quarter
Apr 15
Full

Hourly Weather History & Observations

Time (EDT) Temp. Windchill Dew Point Humidity Pressure Visibility Wind Dir Wind Speed Gust Speed Precip Events Conditions
12:06 AM 50.0 °F - 32.0 °F 50% 30.00 in 10.0 mi Calm Calm - N/A   Clear
12:26 AM 50.0 °F - 30.2 °F 47% 30.00 in 10.0 mi Calm Calm - N/A   Clear
12:46 AM 51.8 °F - 30.2 °F 44% 30.00 in 10.0 mi NNW 4.6 mph - N/A   Clear
1:06 AM 51.8 °F - 28.4 °F 41% 30.00 in 10.0 mi Calm Calm - N/A   Clear
1:26 AM 51.8 °F - 28.4 °F 41% 30.00 in 10.0 mi Calm Calm - N/A   Clear
1:46 AM 51.8 °F - 28.4 °F 41% 30.01 in 10.0 mi NNE 4.6 mph - N/A   Clear
2:06 AM 50.0 °F - 28.4 °F 43% 30.01 in 10.0 mi North 4.6 mph - N/A   Clear
2:26 AM 48.2 °F - 30.2 °F 50% 30.01 in 10.0 mi NNE 8.1 mph - N/A   Clear
2:46 AM 48.2 °F - 30.2 °F 50% 30.01 in 10.0 mi North 5.8 mph - N/A   Clear
3:06 AM 46.4 °F 42.9 °F 30.2 °F 53% 30.02 in 10.0 mi North 6.9 mph - N/A   Clear
3:26 AM 46.4 °F 43.5 °F 30.2 °F 53% 30.01 in 10.0 mi North 5.8 mph - N/A   Clear
3:46 AM 44.6 °F 43.1 °F 30.2 °F 57% 30.03 in 10.0 mi North 3.5 mph - N/A   Clear
4:06 AM 44.6 °F 43.1 °F 30.2 °F 57% 30.04 in 10.0 mi North 3.5 mph - N/A   Clear
4:26 AM 44.6 °F 43.1 °F 30.2 °F 57% 30.04 in 10.0 mi NNE 3.5 mph - N/A   Clear
4:46 AM 44.6 °F 42.2 °F 28.4 °F 53% 30.04 in 10.0 mi NNW 4.6 mph - N/A   Clear
5:06 AM 44.6 °F 43.1 °F 28.4 °F 53% 30.05 in 10.0 mi North 3.5 mph - N/A   Clear
5:26 AM 44.6 °F - 28.4 °F 53% 30.06 in 10.0 mi Calm Calm - N/A   Clear
5:46 AM 42.8 °F 40.1 °F 28.4 °F 57% 30.06 in 10.0 mi NNW 4.6 mph - N/A   Scattered Clouds
6:06 AM 42.8 °F - 28.4 °F 57% 30.06 in 10.0 mi Calm Calm - N/A   Scattered Clouds
6:26 AM 42.8 °F 40.1 °F 28.4 °F 57% 30.07 in 10.0 mi NE 4.6 mph - N/A   Clear
6:46 AM 41.0 °F - 30.2 °F 65% 30.07 in 10.0 mi Calm Calm - N/A   Clear
7:06 AM 41.0 °F 39.0 °F 30.2 °F 65% 30.07 in 10.0 mi NNE 3.5 mph - N/A   Clear
7:26 AM 41.0 °F 36.4 °F 28.4 °F 61% 30.09 in 10.0 mi North 6.9 mph - N/A   Clear
7:46 AM 41.0 °F 39.0 °F 28.4 °F 61% 30.10 in 10.0 mi North 3.5 mph - N/A   Clear
8:06 AM 41.0 °F 38.0 °F 28.4 °F 61% 30.11 in 10.0 mi NNE 4.6 mph - N/A   Scattered Clouds
8:26 AM 42.8 °F 40.1 °F 28.4 °F 57% 30.11 in 10.0 mi NNE 4.6 mph - N/A   Scattered Clouds
8:47 AM 41.0 °F 37.1 °F 28.4 °F 61% 30.11 in 10.0 mi North 5.8 mph - N/A   Mostly Cloudy
9:07 AM 42.8 °F 40.1 °F 26.6 °F 53% 30.11 in 10.0 mi NNE 4.6 mph - N/A   Scattered Clouds
9:27 AM 42.8 °F 39.3 °F 26.6 °F 53% 30.12 in 10.0 mi North 5.8 mph - N/A   Scattered Clouds
9:47 AM 42.8 °F 38.0 °F 23.0 °F 46% 30.11 in 10.0 mi NE 8.1 mph - N/A   Overcast
10:07 AM 42.8 °F 38.6 °F 23.0 °F 46% 30.11 in 10.0 mi NNE 6.9 mph 17.3 mph N/A   Overcast
10:27 AM 42.8 °F 39.3 °F 23.0 °F 46% 30.11 in 10.0 mi North 5.8 mph - N/A   Overcast
10:47 AM 42.8 °F 38.0 °F 23.0 °F 46% 30.11 in 10.0 mi North 8.1 mph - N/A   Overcast
11:07 AM 41.0 °F 36.4 °F 23.0 °F 49% 30.10 in 10.0 mi North 6.9 mph - N/A   Scattered Clouds
11:27 AM 42.8 °F 38.6 °F 23.0 °F 46% 30.09 in 10.0 mi North 6.9 mph - N/A   Clear
11:47 AM 42.8 °F 38.0 °F 23.0 °F 46% 30.09 in 10.0 mi NNE 8.1 mph 18.4 mph N/A   Clear
12:07 PM 42.8 °F 38.6 °F 23.0 °F 46% 30.10 in 10.0 mi NNE 6.9 mph - N/A   Scattered Clouds
12:27 PM 42.8 °F 38.6 °F 23.0 °F 46% 30.11 in 10.0 mi North 6.9 mph - N/A   Scattered Clouds
12:47 PM 42.8 °F 40.1 °F 23.0 °F 46% 30.10 in 10.0 mi North 4.6 mph - N/A   Clear
1:07 PM 42.8 °F 41.1 °F 23.0 °F 46% 30.10 in 10.0 mi North 3.5 mph - N/A   Mostly Cloudy
1:27 PM 42.8 °F - 23.0 °F 46% 30.09 in 10.0 mi Calm Calm - N/A   Mostly Cloudy
1:47 PM 42.8 °F - 23.0 °F 46% 30.07 in 10.0 mi Calm Calm - N/A   Overcast
2:07 PM 42.8 °F - 23.0 °F 46% 30.07 in 10.0 mi Calm Calm - N/A   Overcast
2:27 PM 42.8 °F 41.1 °F 23.0 °F 46% 30.06 in 10.0 mi NNW 3.5 mph - N/A   Overcast
2:47 PM 41.0 °F 35.8 °F 26.6 °F 57% 30.07 in 10.0 mi NW 8.1 mph - N/A   Overcast
3:07 PM 39.2 °F 35.0 °F 30.2 °F 70% 30.06 in 10.0 mi NW 5.8 mph - N/A   Overcast
3:27 PM 37.4 °F - 32.0 °F 81% 30.06 in 10.0 mi Calm Calm - N/A   Overcast
3:47 PM 37.4 °F 33.8 °F 32.0 °F 81% 30.05 in 10.0 mi WNW 4.6 mph - N/A   Overcast
4:07 PM 39.2 °F 37.0 °F 32.0 °F 75% 30.04 in 10.0 mi NW 3.5 mph - N/A   Overcast
4:27 PM 39.2 °F 37.0 °F 30.2 °F 70% 30.03 in 10.0 mi NNW 3.5 mph - N/A   Overcast
4:48 PM 41.0 °F - 30.2 °F 65% 30.03 in 10.0 mi Calm Calm - N/A   Overcast
5:08 PM 41.0 °F 39.0 °F 28.4 °F 61% 30.03 in 10.0 mi WNW 3.5 mph - N/A   Overcast
5:28 PM 41.0 °F 39.0 °F 28.4 °F 61% 30.01 in 10.0 mi NNE 3.5 mph - N/A   Overcast
5:48 PM 41.0 °F - 28.4 °F 61% 30.02 in 10.0 mi Calm Calm - N/A   Overcast
6:08 PM 41.0 °F - 28.4 °F 61% 30.02 in 10.0 mi Calm Calm - N/A   Overcast
6:28 PM 41.0 °F - 28.4 °F 61% 30.03 in 10.0 mi Calm Calm - N/A   Scattered Clouds
6:48 PM 42.8 °F - 28.4 °F 57% 30.04 in 10.0 mi Calm Calm - N/A   Clear
7:08 PM 41.0 °F - 26.6 °F 57% 30.04 in 10.0 mi Calm Calm - N/A   Clear
7:28 PM 41.0 °F - 26.6 °F 57% 30.05 in 10.0 mi Calm Calm - N/A   Mostly Cloudy
7:48 PM 41.0 °F - 28.4 °F 61% 30.06 in 10.0 mi Calm Calm - N/A   Scattered Clouds
8:08 PM 37.4 °F - 28.4 °F 70% 30.07 in 10.0 mi Calm Calm - N/A   Mostly Cloudy
8:28 PM 39.2 °F 37.0 °F 26.6 °F 61% 30.07 in 10.0 mi WNW 3.5 mph - N/A   Scattered Clouds
8:48 PM 39.2 °F - 24.8 °F 56% 30.08 in 10.0 mi Calm Calm - N/A   Clear
9:08 PM 35.6 °F - 26.6 °F 70% 30.09 in 10.0 mi Calm Calm - N/A   Clear
9:28 PM 35.6 °F - 26.6 °F 70% 30.10 in 10.0 mi Calm Calm - N/A   Clear
9:48 PM 35.6 °F 32.8 °F 23.0 °F 60% 30.11 in 10.0 mi West 3.5 mph - N/A   Clear
10:08 PM 37.4 °F 32.1 °F 19.4 °F 48% 30.11 in 10.0 mi WNW 6.9 mph - N/A   Clear
10:28 PM 37.4 °F 33.8 °F 17.6 °F 45% 30.11 in 10.0 mi NW 4.6 mph - N/A   Clear
10:48 PM 37.4 °F 32.8 °F 17.6 °F 45% 30.13 in 10.0 mi NNW 5.8 mph - N/A   Clear
11:08 PM 37.4 °F 30.8 °F 14.0 °F 38% 30.14 in 10.0 mi NW 9.2 mph 17.3 mph N/A   Clear
11:28 PM 37.4 °F 31.4 °F 12.2 °F 36% 30.15 in 10.0 mi NW 8.1 mph 17.3 mph N/A   Clear
11:48 PM 35.6 °F 26.6 °F 12.2 °F 38% 30.16 in 10.0 mi NW 13.8 mph 21.9 mph N/A   Clear